STARLINK-1107, 44972

Orbit data source: Space-Track

STARLINK-1107, 44972 is a payload satellite owned by SpaceX/Seattle (US) in LEO that was launched on Tue, 07 Jan 2020 UTC via an FALCON 9 launch vehicle from the Air Force Eastern Test Range (AFETR). Payload-class satellites include a variety of spacecraft equipped with specific instruments for various scientific and technological missions. These include communications satellites like Starlink; space stations such as the ISS; scientific satellites like the Hubble; Earth observation satellites from companies like Planet Labs, Umbra, and HawkEye 360; GPS; miniature CubeSats for education and research; and military/defense satellites.

Not visible in the next 10 days
Identifier
44972, 2020-001BL
Orbit
LEO
Country
Flag of USUS
Related business
Manufacturer
SpaceX/Seattle
Mission
Partially operational Commercial Communications
Bus & Motor
STARLINK, Unknown motor
Mass
260 kg wet, ~248 kg dry
Launch date (UTC)
2020-01-07 (6 years ago)
Launch vehicle
FALCON 9
Launch site
Air Force Eastern Test Range (AFETR)
Object type
Payload
Rocket body
Debris
Shape & HBR
Box + 1 Pan, 10.1 m
Radar Cross Section
13.562 m², Large (>1 m²)

Expand to show TLE details & history
Last TLE update: 15 hours ago

TLE from 15 hours ago
0 STARLINK-1107
1 44972U 20001BL  25341.33336806  .01277722  88090-3  23666-2 0  9997
2 44972  52.9962 256.0453 0007314 156.0357  18.3301 16.00667095  5986
Epoch: 2025-12-07T08:00Z
TLE epoch observation values (Epoch: 2025-12-07T08:00:03.000Z)
Latitude
4.42193°
Longitude
-123.6376°
Altitude
268.396 km
Speed
7.75 km/s
True Right ascension
04h 50m 53s
True Declination
4° 23' 37"
Sunlit
Object was in full shadow at epoch
Visualization orbit readout
Latitude
Unknown
Longitude
Unknown
Altitude
Unknown
Speed
Unknown
Apparent Right ascension
Unknown
Apparent Declination
Unknown
Sunlit
N/A
Visualization observer readout
Local Sidereal Time
20:49:16
Azimuth
Unknown
Elevation
Unknown
Doppler factor
Unknown
Orbital elements
Apogee altitude
277.726 km
Perigee altitude
267.997 km
Semi-major axis
6,650.998 km
Eccentricity
0.00073
Inclination
52.9962°
RAAN
256.0453°
Arg. of periapsis
156.0357°
True anomaly
18.35648°
Mean anomaly
18.3301°
Eccentric anomaly
18.34329°
Mean motion
4.00141 °/min
Orbital period
89.97 mins
BSTAR
0.0023666
Loading maneuver chart data...
Computing Atmospheric mass density...

Documentation

Showing up to 5 results
|